Track MOZHAYETS 4 now! 10-day predictions MOZHAYETS 4 is classified as:
1 27939U 03042A 22143.09888005 .00001408 00000-0 25810-3 0 9991 2 27939 98.1889 283.8315 0011605 289.5419 70.4524 14.67324784997324